TimeCDT,TemperatureF,Dew PointF,Humidity,Sea Level PressureIn,VisibilityMPH,Wind Direction,Wind SpeedMPH,Gust SpeedMPH,PrecipitationIn,Events,Conditions,WindDirDegrees,DateUTC
12:53 AM,63.0,62.1,97,30.19,6.0,Calm,Calm,-,N/A,,Clear,0,2012-10-12 05:53:00
1:53 AM,62.1,61.0,96,30.19,4.0,Calm,Calm,-,N/A,,Clear,0,2012-10-12 06:53:00
2:53 AM,61.0,59.0,93,30.17,4.0,Calm,Calm,-,N/A,,Clear,0,2012-10-12 07:53:00
3:53 AM,61.0,59.0,93,30.18,3.0,Calm,Calm,-,N/A,,Clear,0,2012-10-12 08:53:00
4:53 AM,60.1,59.0,96,30.18,4.0,Calm,Calm,-,0.01,,Clear,0,2012-10-12 09:53:00
5:53 AM,59.0,57.9,96,30.20,6.0,Calm,Calm,-,N/A,,Clear,0,2012-10-12 10:53:00
6:53 AM,59.0,57.9,96,30.21,5.0,Calm,Calm,-,N/A,,Clear,0,2012-10-12 11:53:00
7:53 AM,62.1,61.0,96,30.23,5.0,Calm,Calm,-,N/A,,Clear,0,2012-10-12 12:53:00
8:53 AM,68.0,64.0,87,30.25,7.0,Calm,Calm,-,N/A,,Clear,0,2012-10-12 13:53:00
9:53 AM,75.0,63.0,66,30.26,10.0,Variable,3.5,-,N/A,,Clear,0,2012-10-12 14:53:00
10:53 AM,77.0,63.0,62,30.27,10.0,ENE,5.8,-,N/A,,Clear,60,2012-10-12 15:53:00
11:53 AM,79.0,63.0,58,30.27,10.0,Variable,4.6,-,N/A,,Clear,0,2012-10-12 16:53:00
12:53 PM,80.1,61.0,52,30.25,10.0,Calm,Calm,-,N/A,,Partly Cloudy,0,2012-10-12 17:53:00
1:53 PM,81.0,60.1,49,30.21,10.0,Variable,3.5,-,N/A,,Partly Cloudy,0,2012-10-12 18:53:00
2:53 PM,81.0,61.0,50,30.19,10.0,SSE,6.9,-,N/A,,Scattered Clouds,150,2012-10-12 19:53:00
3:53 PM,80.1,61.0,52,30.19,10.0,SSE,5.8,-,N/A,,Partly Cloudy,160,2012-10-12 20:53:00
4:53 PM,81.0,62.1,52,30.19,10.0,SE,5.8,-,N/A,,Scattered Clouds,140,2012-10-12 21:53:00
5:53 PM,78.1,64.0,62,30.19,10.0,SSW,3.5,-,N/A,,Partly Cloudy,200,2012-10-12 22:53:00
6:53 PM,72.0,66.0,81,30.19,10.0,Calm,Calm,-,N/A,,Clear,0,2012-10-12 23:53:00
7:53 PM,68.0,64.9,90,30.20,9.0,Calm,Calm,-,N/A,,Clear,0,2012-10-13 00:53:00
9:53 PM,64.9,63.0,93,30.20,8.0,Calm,Calm,-,N/A,,Clear,0,2012-10-13 02:53:00
10:53 PM,64.0,62.1,93,30.20,7.0,Calm,Calm,-,N/A,,Clear,0,2012-10-13 03:53:00
11:53 PM,64.0,61.0,90,30.19,8.0,Calm,Calm,-,N/A,,Clear,0,2012-10-13 04:53:00